Location: Corralito
(10.2667°N, 66.9500°W)
Time: 18:43:29
(UTC+00:00)

Cosmos 1869 Rocket - Pass Details

Date: 23 March 2023
Orbit: 602 x 632 km, 82.5° (Epoch: 09 June)

Event Time Altitude Azimuth Distance (km) Brightness Sun altitude
Rises 23:47:38 0° 188° (S) 2,849 7.0 -17.8°
Reaches altitude 10° 23:49:51 10° 190° (S) 1,944 6.2 -18.3°
Maximum altitude 23:54:07 70° 274° (W) 641 3.7 -19.4°
Drops below altitude 10° 23:58:23 10° 358° (N) 1,938 6.2 -20.4°
Sets 00:00:36 0° 1° (N) 2,841 7.0 -21.0°
